Location: Alulod
(14.2076°N, 120.8898°E)
Time: 13:31:32
(UTC+00:00)

USA 238 DEB - Pass Details

Date: 20 March 2026
Orbit: 883 x 1328 km, 63.4° (Epoch: 10 January)

Event Time Altitude Azimuth Distance (km) Brightness Sun altitude
Rises 19:45:13 0° 344° (NNW) 4,168 6.7 -33.4°
Reaches altitude 10° 19:48:03 10° 350° (N) 3,248 6.2 -32.7°
Maximum altitude 19:55:46 51° 64° (ENE) 1,604 4.8 -30.9°
Drops below altitude 10° 20:03:42 10° 138° (SE) 3,349 6.6 -29.0°
Sets 20:06:39 0° 143° (SE) 4,307 7.2 -28.3°
